User: anonymous   Login
Location: Le Vaud
(46.4779°N, 6.2346°E)
Time: 18:04:14
(UTC+00:00)
Language:

STARLINK-1110 - Orbit

View from above orbital plane
View from above orbital plane
View from above satellite
View from above satellite

Ground track
Ground track

The orbit data is extracted from the following two-line orbital elements,

1 44946C 20001AJ  20152.43745603  .00001927  00000-0  13171-3 0  1528
2 44946  53.0032  70.9248 0002031  70.9310 203.8302 15.05646998    10
Epoch (UTC): 31 May 2020 10:29:56
Eccentricity: 0.0002031
inclination: 53.0032°
perigee height: 548 km
apogee height: 551 km
right ascension of ascending node: 70.9248°
argument of perigee: 70.9310°
revolutions per day: 15.05646998
mean anomaly at epoch: 203.8302°
orbit number at epoch: 1

The dashed part of the orbit path shows where the satellite is in the earth's shadow,  

DLR